Zurück zum Katalog

BREEZE-M DEB

TANK

AktivHEO
NORAD 35495·DEBRIS·🇷🇺 Russia

Gestartet Jun 30, 2009 von Baikonur Cosmodrome

Loading…

Nächste Überflüge (nächste 24 Stunden)

TLE

AktuellSource: Space-Track

Epoche: Sep 14, 2026, 12:38 UTC

1 35495U 09034C   26257.52686868  .00002701  00000-0  46125-3 0  9994
2 35495  49.6096 297.4453 4880645 179.8172 180.5706  5.81714482348446

Verfolge BREEZE-M DEB in Echtzeit mit AllMySat

Download on the App Store